Location: Rounton
(54.4000°N, 1.3500°W)
Time: 02:48:48
(UTC+00:00)

Envisat - Pass Details

Date: 25 October 2021
Orbit: 764 x 766 km, 98.2° (Epoch: 28 November)

Event Time Altitude Azimuth Distance (km) Brightness Sun altitude
Rises 06:17:40 0° 16° (NNE) 3,247 6.4 -14.5°
Reaches altitude 10° 06:19:59 10° 18° (NNE) 2,316 5.7 -14.2°
Maximum altitude 06:25:06 72° 103° (ESE) 808 3.3 -13.4°
Drops below altitude 10° 06:30:10 10° 189° (S) 2,298 5.4 -12.7°
Sets 06:32:28 0° 191° (S) 3,220 6.2 -12.3°
